Voltar ao catálogo

THORAD AGENA D DEB

AtivoSSO
NORAD 4710·DEBRIS·🇺🇸 United States

Lançado Apr 8, 1970 de Vandenberg Space Force Base

Loading…

Próximas Passagens (próximas 24 horas)

TLE

AtualizadoSource: Space-Track

Época: Sep 14, 2026, 06:57 UTC

1 04710U 70025BY  26257.28976451  .00000088  00000-0  19410-3 0  9994
2 04710 100.1824 273.4477 0004305 322.5601  49.6779 13.56002921785613

Acompanhe THORAD AGENA D DEB em tempo real com AllMySat

Download on the App Store